Вернуться в каталог

STARLINK-30816

АктивенСвязьVLEO
NORAD 58162·PAYLOAD·🇺🇸 United States

Запущен Oct 29, 2023 с Vandenberg Space Force Base

Loading…

Ближайшие Пролёты (ближайшие 24 часа)

TLE

СвежийSource: CelesTrak SupGP

Эпоха: Sep 15, 2026, 02:31 UTC

1 58162C 23166N   26258.10534722 -.00028059  00000+0 -82914-3 0  2587
2 58162  53.1602  58.9586 0001339  83.0417 201.5848 15.34400142    14

Отслеживайте STARLINK-30816 в реальном времени с AllMySat

Download on the App Store